Showing default

BEIDOU 3M27, 61187

Orbit data source: Space-Track

BEIDOU 3M27, 61187 is a payload satellite owned by CNSA (CN) in MEO that was launched on Thu, 19 Sep 2024 UTC via a CHANG ZHENG 3B/YZ-1 launch vehicle from the Xichang Space Center, China (XSC). Payload-class satellites include a variety of spacecraft equipped with specific instruments for various scientific and technological missions. These include communications satellites like Starlink; space stations such as the ISS; scientific satellites like the Hubble; Earth observation satellites from companies like Planet Labs, Umbra, and HawkEye 360; GPS; miniature CubeSats for education and research; and military/defense satellites.

Loading next visibility...
Identifier
61187, 2024-168C
Orbit
MEO
Country
Flag of CNCN / PRC
Related business
Manufacturer
CAST
Mission
Operational Defense Navigation
Bus & Motor
BD-3M, Unknown motor
Mass
1,014 kg wet, ~850 kg dry
Launch date (UTC)
2024-09-19 (2 years ago)
Launch vehicle
CHANG ZHENG 3B/YZ-1
Launch site
Xichang Space Center, China (XSC)
Object type
Payload
Rocket body
Debris
Shape & HBR
Box + 2 Pan, 5.0 m
Radar Cross Section
8.984 m², Large (>1 m²)

Expand to show TLE details & history
Last TLE update: 9 hours ago

TLE from 9 hours ago
0 BEIDOU 3M27
1 61187U 24168C   26171.45985458 -.00000092  00000-0  00000+0 0  9990
2 61187  54.4653 302.1109 0001518  51.2333 295.9316  1.86230118  9318
Epoch: 2026-06-20T11:02Z
TLE epoch observation values (Epoch: 2026-06-20T11:02:11.435Z)
Latitude
-10.44034°
Longitude
-139.67518°
Altitude
21,528.581 km
Speed
3.779 km/s
True Right ascension
19h 38m 11s
True Declination
-10° 25' 29"
Sunlit
Object was in daylight at epoch
Visualization orbit readout
Latitude
Unknown
Longitude
Unknown
Altitude
Unknown
Speed
Unknown
Apparent Right ascension
Unknown
Apparent Declination
Unknown
Sunlit
N/A
Visualization observer readout
Local Sidereal Time
07:24:26
Azimuth
Unknown
Elevation
Unknown
Doppler factor
Unknown
Orbital elements
Apogee altitude
21,532.404 km
Perigee altitude
21,523.931 km
Semi-major axis
27,906.304 km
Eccentricity
0.00015
Inclination
54.4653°
RAAN
302.1109°
Arg. of periapsis
51.2333°
True anomaly
295.91596°
Mean anomaly
295.9316°
Eccentric anomaly
295.92378°
Mean motion
0.46558 °/min
Orbital period
773.24 mins
BSTAR
0
Loading maneuver chart data...
Computing Atmospheric mass density...
Loading historical data...
Loading historical data...
Loading historical data...
Loading historical data...
Loading historical data...
Loading historical data...
Loading historical data...
Other satellites on launch #168 in the year 2024 (2024-09-19 UTC)

Documentation

Showing up to 5 results
|